星链-37962(STARLINK-37962)

导读

STARLINK-37962(NORAD ID 69693)是美国SpaceX公司星链(Starlink)低轨卫星互联网星座的组网卫星,由猎鹰9号火箭发射入轨,运行于近地轨道(LEO)。作为星链巨型星座的组成单元,该卫星属于星链迭代批次卫星,承担全球高速低延迟宽带通信服务功能,单星设计寿命5年以上,可支持地面、航空、海事等多场景网络接入。截至2026年7月,该卫星处于在轨服役状态,参与星链星座全球组网部署,目前星链在轨运作卫星已超万颗,持续推进全球宽带覆盖与手机直连等新场景服务落地。

Basic Information
目录编号:
69693
目录名称:
STARLINK-37962
国际标识:
2026-145S
轨道中心:
EARTH
卫星名称:
星链-37962
卫星全名:
星链-37962(STARLINK-37962)
卫星状态:
在轨 (已飞行78 天)
发射日期:
2026-06-25 UTC
国别 :
美国 (US)
星等 :
--
This satellite is enrolled in the Space Conjunction Data Service (SCDS) and the current flight risk assessment level is: No High Risk
Orbit Information
数据来源 国际轨道数据 AOE轨道数据
星历时间 2026-09-11T08:25:03+0800
17小时前
查看轨道信息
2026-09-06T09:00:00+0800
5天前
查看轨道信息
半长轴 6843.664km 6843.73km
偏心率 0.0001125 0.0001921
轨道倾角 97.282° 97.286°
近地点辐角 78.892° 89.989°
升交点赤经 100.872° 95.970°
平近点角 281.245° 180.109°
近地点 464.757km 464.278km
远地点 466.297km 466.908km
周期 93.906分钟 93.907分钟
每日圈数 15.334507 15.334283
Detailed Information
固有亮度:
5
最大亮度:
2.5
卫星平台:
Starlink V1.0
覆盖范围:
全球
运营商:
太空探索技术公司
运营商所在国:
美国
制造商(研发单位):
太空探索技术公司
制造商所在国:
美国
使用方式:
暂无
Satellite Introduction
Starlink 计划是 SpaceX 推出的全球卫星互联网项目,通过发射低轨道卫星,为全球尤其是偏远地区提供高速、低延迟的互联网服务。自 2019 年起,Starlink 已部署数千颗卫星,旨在缩小全球数字鸿沟,推动互联网普及。该项目还为军事、航空等行业提供通信支持,带来广泛经济效益。
2D Orbit Map
3D Orbit Map
Orbit Altitude Analysis Chart
Orbit Inclination Analysis Chart
Orbit Comprehensive Analysis Chart
View Comprehensive Chart
Conjunction Data List
Event ID Objects TCA Miss Dist (km) Collision Risk Probability Collision Risk Index (CRI) Action
CDM_260913-061906-077406-969321
2026-09-13T
06:19:17+0000
0.314 km
远距离
4.84249E-4 高风险 0.89
CDM_260912-082004-738106-969322
2026-09-12T
08:20:36+0000
1.200 km
极远距离
1.401183E-5 中风险 0.58
CDM_260911-155006-693206-969321
2026-09-11T
15:50:46+0000
1.264 km
极远距离
1.064356E-5 中风险 0.56
CDM_260913-132006-586206-969321
2026-09-13T
13:20:43+0000
1.411 km
极远距离
4.953433E-6 低风险 0.49
CDM_260912-063004-649606-969321
ICEYE-X7 (46496)
2026-09-12T
06:30:14+0000
2.242 km
极远距离
2.047708E-6 低风险 0.41
CDM_260912-045604-649606-969324
ICEYE-X7 (46496)
2026-09-12T
04:56:15+0000
2.325 km
极远距离
1.896802E-6 低风险 0.41
CDM_260911-232704-649606-969322
ICEYE-X7 (46496)
2026-09-11T
23:27:22+0000
2.350 km
极远距离
1.8534E-6 低风险 0.4
CDM_260912-191204-704106-969321
2026-09-12T
19:12:43+0000
2.488 km
极远距离
1.759935E-6 低风险 0.4
CDM_260913-095906-830806-969321
2026-09-13T
09:59:50+0000
2.397 km
极远距离
1.488646E-6 低风险 0.38
CDM_260913-075306-077406-969321
2026-09-13T
07:53:20+0000
2.919 km
极远距离
1.408682E-6 低风险 0.38
Miss Distance Evolution Trend with All Objects
Collision Probability Evolution Trend with All Objects